User: anonymous
Location: Fort Wayne
(41.1310°N, 85.1290°W)
Time: 00:33:22
(UTC-04:00)
Language:

Meteor 2-10 Rocket - Orbit

View from above orbital plane
View from above orbital plane
View from above satellite
View from above satellite

Ground track
Ground track

The orbit data is extracted from the following two-line orbital elements,

1 14453U 83109B   14244.96705023  .00000104  00000-0  36530-4 0  2242
2 14453 081.1656 051.5380 0106027 131.7684 342.2496 14.24509147602414
Epoch (UTC): 01 September 2014 23:12:33
Eccentricity: 0.0106027
inclination: 81.1656°
perigee height: 734 km
apogee height: 886 km
right ascension of ascending node: 51.5380°
argument of perigee: 131.7684°
revolutions per day: 14.24509147
mean anomaly at epoch: 342.2496°
orbit number at epoch: 60241

The dashed part of the orbit path shows where the satellite is in the earth's shadow,  

DLR